User: anonymous   Login
Location: ???????
(55.4362°N, 38.1183°E)
Time: 19:41:31
(UTC+00:00)
Language:

MOZ.5/SAFIR/RUBIN 5/SL-8 - Orbit

View from above orbital plane
View from above orbital plane
View from above satellite
View from above satellite

Ground track
Ground track

The orbit data is extracted from the following two-line orbital elements,

1 28898U 05043G   21267.93240109  .00000136  00000-0  37622-4 0  9997
2 28898  98.1353  31.2816 0019198 340.0965  19.9485 14.60546261470992
Epoch (UTC): 24 September 2021 22:22:39
Eccentricity: 0.0019198
inclination: 98.1353°
perigee height: 678 km
apogee height: 705 km
right ascension of ascending node: 31.2816°
argument of perigee: 340.0965°
revolutions per day: 14.60546261
mean anomaly at epoch: 19.9485°
orbit number at epoch: 47099

The dashed part of the orbit path shows where the satellite is in the earth's shadow,  

DLR